Hobart, OK

2:00 PM CDT on March 26, 2017 (GMT -0500)
Hobart Municipal

Weather History for KHBR - March, 2014

Change the Weather History Date:

Monday, March 17, 2014

  Actual Average Record
Temperature  
Mean Temperature 42 °F -  
Max Temperature 61 °F 59 °F 91 °F (2011)
Min Temperature 24 °F 37 °F 24 °F (2014)
Degree Days  
Heating Degree Days 23    
Moisture  
Dew Point 27 °F    
Average Humidity 57    
Maximum Humidity 88    
Minimum Humidity 32    
Precipitation  
Precipitation 0.00 in - - ()
Sea Level Pressure  
Sea Level Pressure 29.83 in    
Wind  
Wind Speed 11 mph (SW)    
Max Wind Speed 30 mph    
Max Gust Speed 39 mph    
Visibility 10 miles    
Events      
Averages and records for this station are not official NWS values.
T = Trace of Precipitation, MM = Missing Value Source: NWS Daily Summary

Daily Weather History Graph

Daily Weather History Graph

Search for Another Location

Airport or City:

Trip Planner

Search our weather history database for the weather conditions in past years. The results will help you decide how hot, cold, wet, or windy it might be!

Date:

Astronomy

Mar. 17, 2014 Rise Set
Actual Time 7:43 AM CDT 7:45 PM CDT
Civil Twilight 7:18 AM CDT 8:10 PM CDT
Nautical Twilight 6:49 AM CDT 8:40 PM CDT
Astronomical Twilight 6:19 AM CDT 9:09 PM CDT
Moon 8:59 PM CDT (3/17) 8:03 AM CDT (3/17)
Length of Visible Light 12h 51m
Length of Day
12h 01m
Full, 99% of the Moon is Illuminated
Mar 17
Full
Mar 23
Last Quarter
Mar 30
New
Apr 7
First Quarter
Apr 15
Full

Hourly Weather History & Observations

Time (CDT) Temp. Windchill Dew Point Humidity Pressure Visibility Wind Dir Wind Speed Gust Speed Precip Events Conditions
12:53 AM 32.0 °F 28.7 °F 24.1 °F 73% 30.14 in 10.0 mi NNW 3.5 mph - N/A   Clear
1:53 AM 28.9 °F 21.1 °F 24.1 °F 82% 30.12 in 10.0 mi North 8.1 mph - N/A   Clear
2:53 AM 28.9 °F 22.8 °F 23.0 °F 78% 30.09 in 10.0 mi North 5.8 mph - N/A   Clear
3:53 AM 26.1 °F 19.4 °F 23.0 °F 88% 30.07 in 10.0 mi NW 5.8 mph - N/A   Clear
4:53 AM 25.0 °F 17.1 °F 21.9 °F 88% 30.05 in 10.0 mi West 6.9 mph - N/A   Clear
5:53 AM 24.1 °F 17.0 °F 21.0 °F 88% 30.03 in 10.0 mi WNW 5.8 mph - N/A   Clear
6:53 AM 25.0 °F 20.7 °F 21.0 °F 85% 30.00 in 10.0 mi WNW 3.5 mph - N/A   Clear
7:53 AM 24.1 °F 19.7 °F 21.0 °F 88% 30.00 in 10.0 mi WNW 3.5 mph - N/A   Clear
8:53 AM 28.9 °F 21.9 °F 25.0 °F 85% 30.01 in 10.0 mi West 6.9 mph - N/A   Clear
9:53 AM 37.9 °F 32.7 °F 30.0 °F 73% 29.99 in 10.0 mi SW 6.9 mph - N/A   Clear
10:53 AM 46.0 °F 40.2 °F 28.9 °F 51% 29.94 in 10.0 mi SW 12.7 mph - N/A   Clear
11:53 AM 51.1 °F - 26.1 °F 38% 29.90 in 10.0 mi SW 15.0 mph - N/A   Clear
12:53 PM 53.1 °F - 30.0 °F 41% 29.85 in 10.0 mi SSW 16.1 mph - N/A   Clear
1:53 PM 57.9 °F - 30.9 °F 36% 29.80 in 10.0 mi SSW 19.6 mph 24.2 mph N/A   Clear
2:53 PM 60.1 °F - 30.0 °F 32% 29.75 in 10.0 mi SSW 24.2 mph 28.8 mph N/A   Clear
3:53 PM 59.0 °F - 28.9 °F 32% 29.70 in 10.0 mi South 24.2 mph 31.1 mph N/A   Clear
4:53 PM 60.1 °F - 30.9 °F 33% 29.67 in 10.0 mi South 25.3 mph 29.9 mph N/A   Clear
5:53 PM 60.1 °F - 30.0 °F 32% 29.63 in 10.0 mi South 24.2 mph 33.4 mph N/A   Clear
6:53 PM 57.9 °F - 30.0 °F 35% 29.60 in 10.0 mi South 18.4 mph - N/A   Clear
7:53 PM 53.1 °F - 30.9 °F 43% 29.60 in 10.0 mi SSE 17.3 mph - N/A   Clear
8:53 PM 52.0 °F - 28.9 °F 41% 29.56 in 10.0 mi SSE 20.7 mph - N/A   Clear
9:53 PM 52.0 °F - 28.9 °F 41% 29.52 in 10.0 mi South 23.0 mph 31.1 mph N/A   Clear
10:53 PM 51.1 °F - 30.0 °F 44% 29.49 in 10.0 mi South 27.6 mph 34.5 mph N/A   Clear
11:53 PM 51.1 °F - 28.9 °F 43% 29.45 in 10.0 mi South 29.9 mph 39.1 mph N/A   Clear